Theta_e
329 330 331 329 329 330 330 331 329 329 331 331 330 328 329 330 332 333 332 333 332 331 331 331 331 331 331 331 331 330 329 327 325
328 327 326 326 328 328 327 330 330 329 327 326 328 329 329 333 333 333 332 332 332 330 328 328 328 327 327 327 327 326 325 324 323
327 326 326 326 327 328 328 330 330 328 325 324 327 329 331 332 332 332 331 330 330 329 327 325 324 324 324 323 323 323 322 322 323
325 325 326 326 328 327 328 328 327 326 323 322 322 328 330 330 330 329 328 328 328 326 325 324 323 322 321 321 322 322 321 320 321
325 324 325 328 326 330 326 325 325 324 323 322 321 326 327 328 328 327 326 326 325 324 323 323 322 322 321 321 320 321 319 321 319
324 323 324 326 325 326 326 328 324 323 322 322 321 322 326 327 326 325 324 323 322 322 322 322 321 320 320 319 319 319 320 320 319
323 323 323 324 325 325 328 326 323 322 322 321 321 319 321 323 325 324 322 321 321 320 320 320 320 319 318 318 318 318 318 317 317
322 322 322 324 326 324 325 324 323 322 321 321 319 317 320 319 321 321 321 320 319 319 319 318 319 319 318 318 317 317 317 316 315
321 321 321 323 326 324 323 323 322 321 321 320 317 316 318 319 319 320 320 320 319 319 318 318 319 319 318 317 316 315 315 315 315
320 320 321 321 324 322 322 322 322 321 320 319 317 318 318 319 319 319 320 318 319 319 318 319 318 317 316 316 315 315 315 315 314
322 321 322 320 322 319 320 322 321 321 320 317 317 318 318 318 318 318 320 318 318 320 319 319 317 316 315 315 315 313 311 310 309
319 321 321 317 320 316 318 320 320 320 317 316 316 317 318 318 318 318 317 317 319 319 320 318 316 315 316 313 311 309 308 307 307
315 315 316 315 318 315 318 320 319 318 315 314 315 316 317 318 318 317 317 317 317 318 316 316 315 315 313 311 308 306 306 305 306
311 310 309 312 314 314 316 319 318 315 312 311 312 314 316 317 317 317 317 316 316 316 315 314 314 312 311 308 306 304 304 304 304
307 306 307 310 311 312 314 316 316 314 312 310 311 312 314 314 314 315 314 312 313 315 313 310 310 309 307 305 303 303 303 303 303
306 307 308 310 310 311 313 314 314 311 310 308 306 307 309 310 310 308 306 309 311 312 307 304 305 305 303 301 300 300 301 302 302
309 309 308 309 310 311 311 313 311 310 309 309 308 309 308 305 305 305 304 304 304 303 302 302 302 302 300 299 296 295 299 300 301
309 309 309 308 309 311 312 313 313 311 308 309 311 311 312 309 306 306 306 303 303 303 302 301 301 300 299 299 296 294 293 297 299
309 308 308 308 308 310 312 313 312 311 309 309 310 310 310 312 310 306 304 305 304 303 302 301 300 300 299 298 295 294 292 295 297
308 308 308 308 308 308 311 312 312 312 311 310 309 307 309 309 309 310 306 302 303 303 302 301 301 300 298 297 294 293 292 293 295
Wind_Speed
18 18 18 18 16 17 17 17 22 20 20 19 20 21 20 20 17 19 22 23 22 21 22 22 23 24 24 24 25 25 24 24 22
20 20 20 20 19 20 18 19 20 21 20 18 19 18 19 20 21 22 24 23 22 22 20 19 20 19 20 20 21 21 22 19 19
20 20 20 20 22 20 19 19 19 21 19 20 20 20 23 21 21 20 20 21 19 20 20 19 19 19 19 18 19 18 20 20 19
20 21 20 22 21 20 22 21 22 21 19 19 17 19 21 23 19 18 17 16 18 17 19 19 19 18 18 19 20 19 19 20 20
20 20 21 21 20 21 23 23 22 20 18 17 14 17 18 19 18 17 17 18 17 17 19 19 19 19 19 19 19 20 19 19 18
20 19 20 21 22 21 22 23 21 20 20 16 13 15 19 18 17 17 19 18 17 18 19 19 19 19 19 19 19 18 18 18 17
19 19 20 21 20 22 21 21 21 19 16 14 11 13 17 16 15 15 15 17 17 18 18 18 18 18 18 17 17 17 17 16 15
20 20 19 21 19 22 22 22 19 15 15 13 11 13 16 14 12 12 14 16 16 17 18 18 17 17 17 17 16 16 15 14 13
20 21 20 21 20 21 22 21 17 16 15 12 12 14 17 18 15 14 15 16 15 16 16 16 16 16 15 15 14 14 13 12 12
20 20 20 22 21 20 22 21 19 18 16 14 13 16 18 18 16 14 15 14 15 14 15 15 14 14 13 13 13 13 12 12 11
22 19 20 21 20 20 21 21 20 18 16 14 15 17 18 18 18 16 16 13 13 15 14 14 13 12 12 13 12 11 11 11 11
21 21 20 21 21 19 21 22 21 19 16 15 16 17 18 18 18 18 16 15 14 14 14 13 12 11 12 11 11 11 10 11 10
20 21 21 23 24 21 22 23 22 20 17 16 17 17 17 17 18 18 17 17 16 13 12 12 11 11 10 10 10 10 10 10 10
19 20 21 23 25 24 24 25 23 20 18 17 16 16 16 16 16 16 17 17 16 15 16 14 12 11 10 8 8 8 9 9 9
19 19 21 21 22 24 25 26 24 22 20 17 16 15 15 15 15 16 16 17 17 16 15 14 12 12 9 8 7 7 7 8 8
20 20 21 22 23 24 25 27 26 22 22 19 9 9 12 14 15 15 16 17 17 16 14 13 13 9 8 7 6 6 5 6 6
21 22 24 24 25 24 27 28 24 16 26 10 9 4 5 11 15 15 16 16 16 15 15 14 14 13 11 8 5 3 3 3 4
23 24 24 24 25 27 28 30 32 20 27 19 8 4 5 8 13 20 20 20 19 19 18 16 16 15 13 10 7 5 2 1 3
24 24 25 26 27 28 31 32 33 27 25 23 18 6 7 4 4 11 20 21 21 20 18 17 16 15 14 12 9 6 4 3 5
24 25 26 27 28 30 31 34 35 34 27 30 25 13 10 7 3 3 11 16 19 19 18 18 17 16 15 13 10 7 7 6 8
Wind_Direction
148 150 151 150 152 143 135 128 136 127 119 116 114 114 115 112 104 103 101 95 93 89 82 77 78 74 71 73 76 74 72 68 65
151 158 161 157 153 146 139 132 130 127 122 123 119 113 115 106 103 101 99 96 92 89 84 78 73 73 71 69 69 71 68 70 70
154 155 155 153 149 151 143 141 136 131 129 115 111 112 114 106 101 98 95 94 89 86 84 81 78 77 76 75 75 75 77 74 72
153 150 147 149 150 148 147 142 140 136 130 119 113 117 116 114 107 101 96 93 90 91 89 87 86 84 84 82 82 81 81 76 74
153 149 150 150 147 145 147 144 142 139 138 128 123 117 119 109 101 99 100 97 96 96 95 94 93 92 91 89 88 82 80 76 73
152 150 152 151 150 148 150 149 150 148 140 131 131 127 113 113 108 106 101 99 102 104 101 100 97 95 92 89 86 85 81 78 75
154 153 153 154 154 152 150 154 152 144 138 140 142 143 129 118 112 109 99 105 108 106 104 103 99 96 94 92 89 86 84 83 79
157 157 156 161 163 158 158 155 149 160 150 142 137 142 154 134 122 119 117 115 115 112 109 106 105 102 97 94 91 88 85 83 76
163 163 162 169 168 165 162 157 160 157 152 145 136 137 137 127 125 132 130 121 120 119 115 112 109 104 102 99 94 90 85 77 72
164 168 169 174 171 169 166 165 162 158 155 148 147 142 140 136 135 141 140 129 128 123 121 115 112 109 106 101 96 92 85 77 68
179 174 177 176 174 171 171 170 167 162 158 154 153 153 151 148 146 146 141 137 139 136 131 122 118 114 109 105 100 93 83 75 65
191 189 184 179 176 174 174 173 169 165 162 159 159 159 158 159 157 157 156 148 142 145 135 130 128 121 115 105 96 89 77 67 57
196 192 189 181 180 179 177 174 171 171 170 166 165 167 167 168 167 166 167 163 156 143 151 136 135 130 117 114 102 89 77 66 58
200 197 192 186 184 185 184 181 181 175 171 167 166 169 172 175 177 177 177 179 176 159 160 150 144 133 129 115 98 85 75 65 54
201 197 193 192 191 191 191 190 187 182 174 164 165 172 179 183 186 187 186 184 184 186 183 174 158 152 133 119 99 82 73 63 51
204 202 201 203 205 201 196 192 189 180 175 154 145 168 186 188 191 194 193 190 191 192 192 183 177 163 161 147 124 96 79 64 48
219 218 215 214 211 206 202 197 185 184 178 162 143 168 217 221 208 204 203 201 199 199 198 196 193 193 191 194 195 155 105 67 35
225 225 221 220 217 213 209 204 199 182 189 185 165 158 206 181 218 216 212 210 209 210 208 205 204 204 207 211 218 231 232 27 356
229 227 226 225 223 221 217 211 209 197 189 198 207 191 154 177 183 216 216 215 215 215 213 212 211 211 214 221 232 244 266 305 325
233 231 229 229 229 228 224 218 214 211 202 201 205 203 190 186 147 175 196 217 218 217 216 217 217 217 219 224 233 256 275 298 313